Regional Weather Roundup
Issued by NWS Sioux Falls, SD

Home | Current Version | Previous Version | Text Only | Print | Product List | Glossary Off
Versions: 1 2 3 4 5 6 7 8 9 10 11 12 13 14 15 16 17 18 19 20 21 22 23 24 25 26 27 28 29 30 31 32 33 34 35 36 37 38 39 40 41 42 43 44 45 46 47 48 49 50

000
ASUS43 KFSD 262110
RWRFSD

WEATHER ROUNDUP FOR SE SOUTH DAKOTA/SW MINNESOTA/NW IOWA
NATIONAL WEATHER SERVICE SIOUX FALLS SD
400 PM CDT THU MAY 26 2016

NOTE: "FAIR" INDICATES FEW OR NO CLOUDS BELOW 12,000 FEET WITH NO
SIGNIFICANT WEATHER AND OR OBSTRUCTIONS TO VISIBILITY.


SDZ038>040-050-052>070-262200-
SOUTHEAST SOUTH DAKOTA

CITY           SKY/WX    TMP DP  RH WIND       PRES   REMARKS
BROOKINGS      PTSUNNY   74  49  41 W5        29.84F
CHAMBERLAIN    SUNNY     76  58  52 S7        29.80F
HURON          SUNNY     76  52  43 SE6       29.81F
MADISON        FAIR      73  52  46 SW5       29.85F
MITCHELL       CLOUDY    74  53  48 E3        29.82F
SIOUX FALLS    CLOUDY    75  54  47 SE3       29.82F
WINNER         FAIR      76  50  40 SW3       29.80F
YANKTON        MOSUNNY   73  55  53 NE7       29.81S
$$

MNZ071-072-080-081-089-090-097-098-262200-
SOUTHWEST MINNESOTA

CITY           SKY/WX    TMP DP  RH WIND       PRES   REMARKS
FAIRMONT       SUNNY     79  46  31 SW3       29.81F
JACKSON        SUNNY     77  46  33 CALM      29.83F
LUVERNE        SUNNY     73  46  38 CALM      29.83F
MARSHALL       PTSUNNY   78  50  37 W12       29.83F
MONTEVIDEO     SUNNY     84  45  24 N9        29.83S
PIPESTONE      MOSUNNY  N/A N/A N/A CALM      29.84F
REDWOOD FALLS  MOSUNNY   79  48  33 W7        29.81F
TRACY          CLOUDY    77  50  38 W5        29.83F
WINDOM         SUNNY     79  48  34 CALM      29.82F
WORTHINGTON    SUNNY     75  54  47 SW5       29.83F
$$

IAZ001>003-012>014-020>022-031-032-NEZ013-014-SDZ071-262200-
NORTHWEST IOWA

CITY           SKY/WX    TMP DP  RH WIND       PRES   REMARKS
CHEROKEE       SUNNY     77  57  49 CALM      29.84R
DENISON        CLOUDY    79  57  47 E6        29.78R
ESTHERVILLE    SUNNY     77  53  43 NW7       29.81F
LE MARS        SUNNY     77  57  50 VRB7      29.82R
ORANGE CITY    SUNNY     77  55  47 SE5       29.84R
SHELDON        SUNNY     75  54  46 E3        29.83F
SIOUX CITY     CLOUDY    78  56  46 NE8       29.78F
SPENCER        SUNNY     77  52  41 W3        29.83F
STORM LAKE       N/A     77  55  47 N7        29.83R
$$

ABBREVIATIONS USED IN REMARKS
   TC - TEMPERATURE IN CELSIUS
  WCI - WIND CHILL INDEX
   HX - HEAT INDEX
  VSB - VISIBILITY




USA.gov is the U.S. government's official web portal to all federal, state and local government web resources and services.